GW4799 Weather Reports


Display with metric or nautical units.
time (UTC)temp
F
wind
direction
speed
MPH
gust
MPH
rain 1hr
in
rain 24hr
in
rain mn
in
humidity
%
barometer
mb
20260505095521 48 55 3.0 5.0 0.00 0.00 0.00 91 1020.1
20260505095012 48 49 3.0 4.0 0.00 0.00 0.00 89 1020.2
20260505094511 49 29 3.0 5.0 0.00 0.00 0.00 88 1020.1
20260505094012 49 20 4.0 6.0 0.00 0.00 0.00 87 1020.0
20260505093512 49 17 5.0 7.0 0.00 0.00 0.00 87 1020.0
20260505093012 49 23 4.0 7.0 0.00 0.00 0.00 87 1020.0
20260505092521 49 28 4.0 6.0 0.00 0.00 0.00 88 1019.7
20260505092011 49 17 4.0 7.0 0.00 0.00 0.00 87 1019.8
20260505091511 49 6 4.0 7.0 0.00 0.00 0.00 87 1019.7
20260505091012 49 2 3.0 6.0 0.00 0.00 0.00 88 1019.7
20260505090521 49 5 4.0 6.0 0.00 0.00 0.00 86 1019.7
20260505090011 50 7 4.0 8.0 0.00 0.00 0.00 86 1019.7
20260505085512 50 10 5.0 8.0 0.00 0.00 0.00 84 1019.6
20260505085022 50 4 5.0 7.0 0.00 0.00 0.00 86 1019.5
20260505084521 51 349 5.0 7.0 0.00 0.00 0.00 82 1019.4
20260505084044 51 1 4.0 6.0 0.00 0.00 0.00 83 1019.3
20260505083512 51 11 4.0 7.0 0.00 0.00 0.00 81 1019.3
20260505083012 51 337 5.0 9.0 0.00 0.00 0.00 82 1019.3
20260505082512 51 328 5.0 9.0 0.00 0.00 0.00 81 1019.1
20260505082011 51 341 5.0 8.0 0.00 0.00 0.00 79 1019.0
20260505081512 52 353 6.0 8.0 0.00 0.00 0.00 78 1019.0
20260505081013 52 340 7.0 12.0 0.00 0.00 0.00 80 1018.9
20260505080021 52 339 8.0 12.0 0.00 0.00 0.00 78 1018.8
20260505075522 53 345 7.0 12.0 0.00 0.00 0.00 77 1018.8
20260505075011 53 359 6.0 9.0 0.00 0.00 0.00 76 1019.0
20260505074512 53 357 8.0 12.0 0.00 0.00 0.00 76 1018.8
20260505074022 53 331 7.0 12.0 0.00 0.00 0.00 73 1018.6
20260505073511 53 322 9.0 12.0 0.00 0.00 0.00 76 1018.5
20260505073022 54 332 9.0 12.0 0.00 0.00 0.00 71 1018.6
20260505072522 55 341 8.0 12.0 0.00 0.00 0.00 70 1018.5
20260505072022 55 350 8.0 12.0 0.00 0.00 0.00 67 1018.6
20260505071522 55 350 6.0 12.0 0.00 0.00 0.00 66 1018.5
20260505071022 56 339 5.0 8.0 0.00 0.00 0.00 68 1018.2
20260505070512 56 336 6.0 10.0 0.00 0.00 0.00 65 1018.2
20260505070012 56 324 8.0 14.0 0.00 0.00 0.00 68 1018.0
20260505065522 57 333 9.0 14.0 0.00 0.00 0.00 64 1018.0
20260505065011 57 333 10.0 14.0 0.00 0.00 0.00 64 1018.0
20260505064511 58 322 7.0 12.0 0.00 0.00 0.00 62 1017.9
20260505064022 58 339 5.0 9.0 0.00 0.00 0.00 62 1017.8
20260505063522 59 339 6.0 9.0 0.00 0.00 0.00 60 1017.8
20260505063012 59 332 6.0 10.0 0.00 0.00 0.00 60 1017.8
20260505062522 59 327 6.0 12.0 0.00 0.00 0.00 60 1017.7
20260505062012 59 333 6.0 12.0 0.00 0.00 0.00 58 1017.6
20260505061521 60 335 7.0 12.0 0.00 0.00 0.00 55 1017.5
20260505061022 60 334 7.0 11.0 0.00 0.00 0.00 54 1017.4
20260505060511 60 333 7.0 11.0 0.00 0.00 0.00 55 1017.5
20260505060022 60 348 7.0 11.0 0.00 0.00 0.00 55 1017.4
20260505055523 60 357 8.0 11.0 0.00 0.00 0.00 53 1017.4
20260505055031 60 345 7.0 13.0 0.00 0.00 0.00 53 1017.2
20260505054511 61 338 8.0 14.0 0.00 0.00 0.00 51 1017.2
20260505054022 61 330 11.0 16.0 0.00 0.00 0.00 54 1017.2
20260505053512 61 322 12.0 16.0 0.00 0.00 0.00 54 1017.1
20260505053011 61 323 12.0 16.0 0.00 0.00 0.00 54 1017.0
20260505052521 61 321 13.0 17.0 0.00 0.01 0.00 54 1016.9
20260505052022 61 323 11.0 17.0 0.00 0.01 0.00 51 1016.9
20260505051521 61 329 9.0 13.0 0.00 0.01 0.00 51 1016.9
20260505051023 61 2 9.0 15.0 0.00 0.02 0.00 53 1017.1
20260505041522 61 327 12.0 18.0 0.00 0.02 0.00 54 1016.7
20260505041012 61 325 14.0 20.0 0.00 0.02 0.00 51 1016.7
20260505040521 61 318 14.0 20.0 0.00 0.02 0.00 52 1016.6
20260505040011 61 321 13.0 20.0 0.00 0.02 0.00 53 1016.7
20260505035514 61 334 11.0 19.0 0.00 0.02 0.00 54 1016.8
20260505035022 60 343 11.0 19.0 0.00 0.02 0.00 55 1016.8
20260505034533 61 346 11.0 19.0 0.00 0.02 0.00 54 1016.9
20260505034022 60 344 12.0 19.0 0.00 0.02 0.00 57 1016.7
20260505033521 60 325 13.0 21.0 0.00 0.02 0.00 55 1016.9
20260505033022 60 335 13.0 21.0 0.00 0.02 0.00 56 1016.9
20260505032511 60 333 13.0 22.0 0.00 0.02 0.00 55 1017.0
20260505032023 60 317 15.0 22.0 0.00 0.02 0.00 54 1017.1
20260505031512 60 328 15.0 22.0 0.00 0.02 0.00 57 1017.0
20260505031021 59 345 13.0 21.0 0.00 0.02 0.00 60 1017.1
20260505030511 59 5 12.0 18.0 0.00 0.02 0.00 60 1017.1
20260505030022 59 2 14.0 20.0 0.00 0.02 0.00 61 1017.1
20260505025511 59 356 13.0 20.0 0.00 0.02 0.00 60 1017.1
20260505025013 59 3 12.0 20.0 0.00 0.02 0.00 62 1017.1
20260505024521 60 355 11.0 20.0 0.00 0.02 0.00 58 1017.2
20260505024023 59 349 11.0 18.0 0.00 0.02 0.00 62 1017.4
20260505023511 59 348 12.0 18.0 0.00 0.02 0.00 59 1017.4
20260505023011 59 7 13.0 18.0 0.00 0.02 0.00 59 1017.4
20260505022522 58 15 12.0 18.0 0.00 0.03 0.00 62 1017.5
20260505022012 59 350 11.0 18.0 0.00 0.03 0.00 62 1017.6
20260505021521 58 350 11.0 18.0 0.00 0.03 0.00 62 1017.6
20260505021022 58 356 12.0 16.0 0.00 0.03 0.00 63 1017.7
20260505020535 58 357 13.0 18.0 0.00 0.03 0.00 65 1017.8
20260505020022 58 352 12.0 18.0 0.00 0.03 0.00 65 1018.0
20260505015522 58 339 12.0 17.0 0.00 0.03 0.00 61 1018.0
20260505015045 58 333 12.0 17.0 0.00 0.03 0.00 63 1018.1
20260505014521 58 330 11.0 17.0 0.00 0.03 0.00 63 1018.1
20260505014022 59 328 10.0 16.0 0.00 0.03 0.00 59 1018.1
20260505013512 58 337 9.0 16.0 0.00 0.04 0.00 63 1018.2
20260505013011 58 11 9.0 16.0 0.00 0.05 0.00 62 1018.2
20260505012522 58 20 11.0 16.0 0.00 0.05 0.00 63 1018.3
20260505012031 58 18 11.0 15.0 0.00 0.05 0.00 65 1018.2
20260505011511 58 357 9.0 15.0 0.00 0.05 0.00 65 1018.3
20260505011013 58 7 10.0 18.0 0.00 0.05 0.00 63 1018.3
20260505010511 57 22 12.0 18.0 0.00 0.05 0.00 67 1018.3
20260505010022 57 1 10.0 16.0 0.00 0.05 0.00 69 1018.2
20260505005511 58 355 9.0 15.0 0.00 0.05 0.00 63 1018.2
20260505005022 58 348 8.0 15.0 0.00 0.05 0.00 64 1018.1
20260505004511 58 338 9.0 16.0 0.00 0.05 0.00 64 1018.1
20260505004042 58 340 11.0 17.0 0.00 0.05 0.00 63 1018.1
20260505003512 57 341 12.0 17.0 0.00 0.05 0.00 64 1018.1
20260505003021 57 336 12.0 17.0 0.00 0.05 0.00 64 1018.1
20260505002511 57 336 9.0 15.0 0.00 0.05 0.00 63 1018.2
20260505002012 58 337 8.0 12.0 0.00 0.06 0.00 62 1018.1
20260505001531 57 325 9.0 15.0 0.00 0.06 0.00 63 1018.2
20260505001012 57 326 9.0 15.0 0.00 0.08 0.00 64 1017.9
20260505000522 57 325 10.0 16.0 0.00 0.09 0.00 66 1017.8
20260505000032 57 322 10.0 16.0 0.00 0.09 0.00 65 1017.8
20260504235522 57 328 9.0 16.0 0.00 0.09 0.00 67 1017.8
20260504235022 56 330 8.0 13.0 0.00 0.09 0.00 67 1017.8
20260504234512 56 327 8.0 13.0 0.00 0.09 0.00 68 1018.0
20260504234022 56 320 10.0 16.0 0.00 0.09 0.00 70 1018.0
20260504233512 56 323 9.0 16.0 0.00 0.09 0.00 66 1017.9
20260504233022 56 330 10.0 18.0 0.00 0.11 0.00 66 1017.7
20260504232522 55 334 11.0 18.0 0.00 0.12 0.00 70 1017.7
20260504232012 55 337 12.0 19.0 0.00 0.14 0.00 70 1017.5
20260504231521 55 322 13.0 19.0 0.00 0.15 0.00 71 1017.4
20260504231012 55 331 12.0 18.0 0.00 0.21 0.00 72 1017.4
20260504230534 54 345 10.0 15.0 0.00 0.21 0.00 75 1017.4
20260504230012 54 350 10.0 13.0 0.00 0.22 0.00 76 1017.4
20260504225521 53 347 8.0 13.0 0.00 0.23 0.00 75 1017.5
20260504225013 53 356 8.0 14.0 0.00 0.24 0.00 75 1017.7
20260504224512 53 4 9.0 14.0 0.00 0.25 0.00 75 1017.8
20260504224023 53 2 9.0 14.0 0.00 0.26 0.00 77 1017.8
20260504223522 53 2 7.0 11.0 0.00 0.26 0.00 74 1017.8
20260504223013 53 359 7.0 10.0 0.00 0.26 0.00 73 1017.8
20260504222523 53 359 5.0 8.0 0.00 0.28 0.00 73 1017.7
20260504222011 53 2 5.0 7.0 0.00 0.29 0.00 72 1017.7
20260504221511 52 4 5.0 7.0 0.00 0.30 0.00 68 1017.7
20260504221012 52 9 5.0 7.0 0.00 0.30 0.00 69 1017.7
20260504220521 52 9 7.0 12.0 0.00 0.30 0.00 69 1017.6
20260504220012 52 350 7.0 12.0 0.00 0.35 0.00 70 1017.5
20260504215523 51 332 7.0 12.0 0.00 0.35 0.00 73 1017.5
20260504215012 52 331 8.0 13.0 0.00 0.36 0.00 71 1017.3
20260504214522 51 324 8.0 13.0 0.00 0.37 0.00 72 1017.4
20260504214013 49 323 8.0 13.0 0.00 0.37 0.00 84 1017.3
20260504213522 48 324 8.0 12.0 0.00 0.38 0.00 88 1017.2
20260504213022 48 320 8.0 12.0 0.00 0.38 0.00 90 1017.1
20260504212522 47 322 7.0 12.0 0.00 0.38 0.00 90 1017.0
20260504212022 47 327 8.0 12.0 0.00 0.38 0.00 93 1016.9
20260504211522 46 331 7.0 10.0 0.00 0.38 0.00 95 1016.9
20260504211013 46 335 7.0 10.0 0.00 0.38 0.00 95 1016.9
20260504210512 46 333 7.0 11.0 0.00 0.38 0.00 95 1016.8
20260504210012 46 332 6.0 11.0 0.00 0.38 0.00 96 1016.7
20260504205521 46 328 6.0 10.0 0.00 0.39 0.00 96 1016.7
20260504205021 46 326 7.0 12.0 0.00 0.39 0.00 95 1016.6
20260504204522 46 324 8.0 12.0 0.00 0.39 0.00 95 1016.5
20260504204012 46 318 5.0 8.0 0.00 0.39 0.00 96 1016.5
20260504203512 46 322 7.0 11.0 0.00 0.39 0.00 95 1016.4
20260504203021 46 322 7.0 11.0 0.00 0.39 0.00 95 1016.4
20260504202511 46 320 6.0 10.0 0.00 0.39 0.00 96 1016.2
20260504202022 46 320 7.0 10.0 0.00 0.39 0.00 95 1016.3
20260504201523 46 320 6.0 10.0 0.00 0.39 0.00 95 1016.2
20260504201022 46 315 7.0 12.0 0.00 0.39 0.00 95 1016.2
20260504200522 46 315 8.0 12.0 0.00 0.39 0.00 96 1016.1
20260504200013 46 321 7.0 10.0 0.00 0.39 0.00 97 1015.9
20260504195522 46 321 6.0 10.0 0.00 0.39 0.00 97 1016.0
20260504195013 46 321 7.0 12.0 0.00 0.39 0.00 96 1016.0
20260504194522 46 322 8.0 12.0 0.00 0.39 0.00 97 1015.9
20260504194012 46 323 8.0 12.0 0.00 0.39 0.00 97 1015.9
20260504193522 46 325 7.0 11.0 0.00 0.39 0.00 97 1015.7
20260504193022 45 325 7.0 11.0 0.00 0.39 0.00 96 1015.6
20260504192512 45 326 5.0 9.0 0.00 0.39 0.00 100 1015.4
20260504192022 44 325 4.0 8.0 0.00 0.39 0.00 100 1015.3
20260504191513 44 33 3.0 6.0 0.00 0.42 0.00 100 1015.3
20260504190032 44 46 3.0 6.0 0.00 0.42 0.00 100 1015.4
20260504185522 44 90 4.0 6.0 0.00 0.48 0.00 100 1015.3
20260504185022 45 54 3.0 5.0 0.00 0.50 0.00 100 1015.1
20260504184511 45 11 3.0 8.0 0.00 0.50 0.00 99 1015.1
20260504184021 46 341 3.0 8.0 0.00 0.50 0.00 98 1015.0
20260504183512 46 329 6.0 12.0 0.00 0.50 0.00 97 1014.9
20260504183012 46 328 8.0 12.0 0.00 0.50 0.00 97 1014.8
20260504182522 46 325 8.0 12.0 0.00 0.50 0.00 98 1014.7
20260504182032 47 322 8.0 14.0 0.00 0.50 0.00 95 1014.7
20260504181512 47 319 8.0 14.0 0.00 0.50 0.00 96 1014.7
20260504181011 47 324 8.0 14.0 0.00 0.51 0.00 96 1014.8
20260504180521 47 333 8.0 13.0 0.00 0.51 0.00 97 1014.7
20260504180021 47 331 9.0 17.0 0.00 0.51 0.00 97 1014.8
20260504175512 47 330 11.0 19.0 0.00 0.51 0.00 97 1014.9
20260504175012 47 318 11.0 19.0 0.00 0.51 0.00 97 1014.8
20260504174521 47 320 12.0 17.0 0.00 0.51 0.00 95 1014.8
20260504174022 47 325 11.0 17.0 0.00 0.51 0.00 95 1014.9
20260504173512 47 329 9.0 14.0 0.00 0.51 0.00 95 1014.8
20260504173012 47 331 8.0 14.0 0.00 0.51 0.00 95 1014.7
20260504172511 47 328 8.0 11.0 0.00 0.51 0.00 96 1014.7
20260504172011 46 328 7.0 11.0 0.00 0.51 0.00 99 1014.6
20260504171521 46 332 6.0 11.0 0.00 0.51 0.00 100 1014.6
20260504171022 46 332 7.0 10.0 0.00 0.52 0.00 100 1014.6
20260504170522 46 340 6.0 10.0 0.00 0.53 0.00 100 1014.6
20260504151032 48 345 7.0 12.0 0.00 0.62 0.00 88 1015.4
20260504150512 48 334 9.0 12.0 0.00 0.63 0.00 89 1015.3
20260504141012 48 321 11.0 17.0 0.00 0.69 0.00 92 1015.5
20260504140514 48 322 11.0 16.0 0.00 0.69 0.00 95 1015.5
20260504130531 48 352 6.0 10.0 0.00 0.70 0.69 99 1015.7
20260504110523 49 350 5.0 10.0 0.00 0.71 0.69 95 1016.0
20260504100512 50 350 6.0 9.0 0.00 0.72 0.69 87 1015.3